Vertical_Velocity
2 22 2 13 13 6 15 -4 -1 1 -2 2 1 2 -1 -4 -1 -3 -3 -2 -1 -0 0 -1 1 -3 0
43 6 18 -2 -1 1 -6 -1 -2 -4 -1 1 6 -1 3 0 1 1 -4 -2 -0 2 1 2 -1 -1 -2
-12 -5 -1 0 -1 1 -1 -1 -3 -1 -2 2 0 -1 -2 -2 0 0 -2 -2 -4 -2 -2 -2 -2 -3 -3
2 3 1 3 0 2 0 -5 1 1 1 -0 2 -4 -3 0 -3 -3 -1 -3 -4 -4 -4 -4 -5 -4 -2
-1 -2 0 0 -1 0 -1 -1 -4 4 -1 6 -4 -4 -0 -3 -4 -3 -5 -4 -3 -3 -3 -4 -2 -2 -2
-1 -1 3 2 0 -3 1 -1 -4 5 -1 6 -5 -1 -4 -5 -3 -3 -5 -4 -3 -3 -3 -0 -1 -1 -1
1 -1 -2 -3 -2 -2 0 -3 0 5 -1 -2 3 0 -4 -4 -3 -8 -7 -3 -3 -2 -0 2 2 -1 -2
-3 -1 -1 0 -1 -1 0 -1 -1 6 2 -6 5 -1 -5 -4 -4 -7 -3 -4 -1 -3 -4 1 2 -1 1
-1 -2 -2 -0 1 2 -0 0 -3 1 11 2 0 3 0 -5 -3 -7 -6 -5 1 -5 -2 2 0 1 6
-2 1 0 -1 -1 1 2 2 -1 -5 3 4 4 10 14 -6 -7 -11 -11 -6 -3 -5 -2 -1 -1 1 2
-1 -1 -0 -0 -0 -1 -0 1 2 -3 1 7 -1 -1 1 19 -2 -3 -4 -9 -6 -5 -4 -2 -5 -3 3
-1 -1 -1 -0 -1 -0 1 2 3 4 3 4 8 0 3 2 7 -4 1 -4 -2 -1 -2 -5 -6 -4 -3
-0 -1 -1 -0 0 1 1 5 4 2 2 -2 0 3 0 2 13 -6 11 4 -8 0 1 -4 -2 -4 -4
0 1 1 -0 0 2 4 5 4 0 1 -0 1 3 3 1 2 3 -3 3 3 -4 2 -1 0 0 0
-3 -2 -3 -4 -4 0 2 3 2 0 -5 -2 1 2 2 1 3 -5 2 0 -3 2 3 2 -8 -4 -3
-2 -2 -5 -5 -5 -3 -2 -0 -0 -1 -0 -2 -3 1 0 -5 -5 -0 -3 -2 -2 -3 -1 4 7 -5 -1
-4 -5 -3 -5 -5 -5 -6 -4 -2 0 -2 -2 -1 1 4 8 3 -13 2 -4 0 0 -1 2 3 -1 2
Height
5654 5656 5656 5657 5653 5655 5651 5651 5651 5650 5648 5647 5647 5645 5642 5640 5639 5637 5635 5633 5632 5631 5629 5629 5628 5627 5627
5634 5636 5641 5640 5641 5642 5640 5640 5639 5637 5635 5633 5631 5627 5627 5626 5624 5622 5620 5618 5616 5614 5612 5611 5609 5607 5606
5627 5630 5632 5632 5631 5631 5629 5626 5625 5623 5621 5619 5616 5614 5612 5611 5608 5606 5603 5601 5599 5596 5593 5589 5586 5584 5581
5618 5619 5622 5621 5621 5618 5615 5614 5612 5609 5608 5605 5602 5599 5598 5594 5592 5590 5586 5582 5579 5575 5570 5565 5559 5555 5552
5612 5613 5613 5612 5610 5608 5604 5601 5599 5598 5596 5591 5587 5584 5581 5577 5575 5572 5567 5563 5558 5553 5546 5540 5535 5530 5527
5606 5605 5604 5602 5599 5596 5593 5591 5589 5586 5582 5578 5571 5568 5563 5560 5557 5552 5549 5544 5538 5532 5527 5520 5515 5512 5508
5598 5596 5594 5591 5589 5586 5584 5580 5578 5574 5568 5565 5557 5552 5545 5542 5539 5534 5531 5527 5522 5517 5511 5505 5501 5499 5496
5590 5589 5586 5583 5580 5576 5572 5568 5565 5561 5553 5548 5542 5534 5527 5524 5521 5518 5516 5512 5507 5502 5495 5491 5488 5486 5484
5583 5580 5576 5572 5568 5563 5558 5553 5549 5546 5541 5531 5527 5519 5513 5508 5505 5503 5501 5498 5493 5488 5482 5478 5475 5474 5473
5572 5567 5563 5558 5553 5549 5543 5538 5531 5528 5525 5518 5513 5511 5504 5493 5489 5488 5486 5484 5480 5475 5469 5465 5462 5462 5461
5560 5556 5551 5546 5540 5534 5529 5522 5515 5509 5508 5503 5497 5496 5494 5490 5478 5476 5474 5471 5468 5464 5458 5453 5449 5448 5448
5548 5543 5538 5532 5525 5519 5511 5504 5497 5492 5490 5489 5486 5483 5480 5477 5473 5467 5464 5460 5457 5453 5448 5442 5437 5436 5434
5536 5530 5523 5517 5509 5500 5491 5484 5479 5476 5475 5474 5473 5470 5468 5465 5462 5457 5455 5450 5446 5442 5438 5432 5427 5423 5420
5525 5518 5510 5502 5492 5481 5472 5468 5465 5463 5463 5462 5460 5458 5455 5452 5449 5445 5442 5439 5436 5432 5429 5423 5417 5415 5412
5512 5505 5496 5486 5474 5464 5459 5458 5456 5454 5452 5451 5449 5446 5443 5440 5437 5433 5431 5428 5425 5422 5419 5415 5405 5402 5403
5499 5491 5481 5470 5461 5455 5453 5451 5450 5447 5444 5441 5438 5435 5432 5428 5423 5421 5418 5417 5415 5412 5409 5408 5402 5394 5395
5487 5478 5469 5460 5454 5450 5447 5445 5442 5439 5436 5432 5429 5426 5424 5421 5415 5406 5408 5406 5405 5402 5399 5397 5393 5388 5384